Waco, TX

5:18 PM CDT on April 28, 2017 (GMT -0500)
Waco Regional

Weather History for KACT - October, 2011

Change the Weather History Date:

Monday, October 24, 2011

  Actual Average Record
Temperature  
Mean Temperature 68 °F 66 °F  
Max Temperature 84 °F 77 °F 91 °F (1992)
Min Temperature 52 °F 54 °F 32 °F (1917)
Degree Days  
Heating Degree Days 0 3  
Month to date heating degree days 20 37  
Since 1 July heating degree days 20 43  
Cooling Degree Days 3 4  
Month to date cooling degree days 151 138  
Year to date cooling degree days 3750 2732  
Growing Degree Days 18 (Base 50)    
Moisture  
Dew Point 55 °F    
Average Humidity 71    
Maximum Humidity 100    
Minimum Humidity 42    
Precipitation  
Precipitation 0.00 in 0.12 in 3.17 in (2015)
Month to date precipitation 5.97 3.09  
Year to date precipitation 20.04 28.31  
Snow  
Snow 0.00 in 0.00 in 0.00 in ()
Month to date snowfall 0.0 0.0  
Since 1 July snowfall 0.0 0.0  
Since 1 September snowfall 0.0 0.0  
Snow Depth 0.00 in    
Sea Level Pressure  
Sea Level Pressure 30.14 in    
Wind  
Wind Speed 3 mph (NW)    
Max Wind Speed 8 mph    
Max Gust Speed 13 mph    
Visibility 4 miles    
Events Fog    
T = Trace of Precipitation, MM = Missing Value Source: NWS Daily Summary

Daily Weather History Graph

Daily Weather History Graph

Search for Another Location

Airport or City:

Trip Planner

Search our weather history database for the weather conditions in past years. The results will help you decide how hot, cold, wet, or windy it might be!

Date:

Astronomy

Oct. 24, 2011 Rise Set
Actual Time 7:38 AM CDT 6:47 PM CDT
Civil Twilight 7:13 AM CDT 7:12 PM CDT
Nautical Twilight 6:45 AM CDT 7:40 PM CDT
Astronomical Twilight 6:16 AM CDT 8:08 PM CDT
Moon 5:05 AM CDT (10/24) 5:08 PM CDT (10/24)
Length of Visible Light 11h 58m
Length of Day
11h 08m
Waning Crescent, 7% of the Moon is Illuminated
Oct 24
Waning Crescent
Oct 26
New
Nov 2
First Quarter
Nov 10
Full
Nov 18
Last Quarter

Hourly Weather History & Observations

Time (CDT) Temp. Heat Index Dew Point Humidity Pressure Visibility Wind Dir Wind Speed Gust Speed Precip Events Conditions
12:51 AM 57.9 °F - 55.9 °F 93% 30.12 in 3.0 mi Calm Calm - N/A   Clear
1:23 AM 57.2 °F - 55.4 °F 94% 30.14 in 2.0 mi North 3.5 mph - N/A   Clear
1:39 AM 57.2 °F - 55.4 °F 94% 30.14 in 1.0 mi North 3.5 mph - N/A   Clear
1:43 AM 55.4 °F - 55.4 °F 100% 30.14 in 0.5 mi North 3.5 mph - N/A Fog Fog
1:51 AM 55.9 °F - 54.0 °F 93% 30.12 in 0.2 mi NNE 3.5 mph - N/A Fog Fog
2:02 AM 55.4 °F - 53.6 °F 94% 30.13 in 1.0 mi NNE 4.6 mph - N/A   Mist
2:09 AM 57.2 °F - 55.4 °F 94% 30.13 in 1.8 mi Calm Calm - N/A   Clear
2:20 AM 53.6 °F - 53.6 °F 100% 30.14 in 0.5 mi Calm Calm - N/A Fog Fog
2:33 AM 55.4 °F - 53.6 °F 94% 30.13 in 1.0 mi NNW 3.5 mph - N/A   Clear
2:48 AM 55.4 °F - 55.4 °F 100% 30.13 in 2.5 mi NW 3.5 mph - N/A   Clear
2:51 AM 55.0 °F - 54.0 °F 96% 30.12 in 2.5 mi NW 3.5 mph - N/A   Clear
3:01 AM 57.2 °F - 55.4 °F 94% 30.13 in 3.0 mi NNW 4.6 mph - N/A   Clear
3:38 AM 53.6 °F - 53.6 °F 100% 30.13 in 2.0 mi WNW 3.5 mph - N/A   Clear
3:51 AM 54.0 °F - 53.1 °F 97% 30.11 in 1.8 mi Calm Calm - N/A   Clear
4:15 AM 53.6 °F - 53.6 °F 100% 30.13 in 0.5 mi Calm Calm - N/A Fog Fog
4:25 AM 53.6 °F - 51.8 °F 94% 30.13 in 1.5 mi West 3.5 mph - N/A   Partly Cloudy
4:51 AM 53.1 °F - 51.1 °F 93% 30.12 in 1.0 mi West 3.5 mph - N/A   Clear
4:55 AM 53.6 °F - 51.8 °F 94% 30.14 in 0.5 mi West 3.5 mph - N/A Fog Fog
5:09 AM 53.6 °F - 51.8 °F 94% 30.13 in 0.8 mi West 4.6 mph - N/A   Mist
5:19 AM 51.8 °F - 51.8 °F 100% 30.14 in 0.5 mi West 4.6 mph - N/A Fog Fog
5:29 AM 51.8 °F - 51.8 °F 100% 30.14 in 2.0 mi West 4.6 mph - N/A   Overcast
5:40 AM 53.6 °F - 51.8 °F 94% 30.14 in 0.8 mi West 5.8 mph - N/A   Mist
5:47 AM 53.6 °F - 51.8 °F 94% 30.14 in 0.2 mi West 4.6 mph - N/A Fog Fog
5:51 AM 52.0 °F - 51.1 °F 97% 30.13 in 0.2 mi West 4.6 mph - N/A Fog Fog
6:17 AM 53.6 °F - 51.8 °F 94% 30.14 in 0.2 mi West 3.5 mph - N/A Fog Fog
6:51 AM 54.0 °F - 53.1 °F 97% 30.13 in 0.2 mi Calm Calm - N/A Fog Fog
7:51 AM 55.0 °F - 54.0 °F 96% 30.16 in 0.1 mi Calm Calm - N/A Fog Fog
8:51 AM 57.9 °F - 55.9 °F 93% 30.18 in 0.1 mi NNW 3.5 mph - N/A Fog Fog
9:51 AM 59.0 °F - 57.9 °F 96% 30.20 in 0.1 mi North 4.6 mph - N/A Fog Fog
10:40 AM 60.8 °F - 60.8 °F 100% 30.21 in 0.1 mi Calm Calm - N/A Fog Fog
10:51 AM 61.0 °F - 60.1 °F 97% 30.21 in 0.1 mi Calm Calm - N/A Fog Fog
11:27 AM 62.6 °F - 60.8 °F 94% 30.22 in 0.8 mi Calm Calm - N/A   Overcast
11:51 AM 64.9 °F - 62.1 °F 90% 30.21 in 2.0 mi Calm Calm - N/A   Overcast
12:13 PM 69.8 °F - 62.6 °F 78% 30.22 in 8.0 mi Calm Calm - N/A   Scattered Clouds
12:51 PM 75.0 °F - 63.0 °F 66% 30.18 in 10.0 mi Variable 4.6 mph - N/A   Clear
1:51 PM 79.0 °F - 61.0 °F 54% 30.15 in 10.0 mi Calm Calm - N/A   Clear
2:51 PM 81.0 °F 80.7 °F 55.0 °F 41% 30.12 in 10.0 mi ESE 3.5 mph - N/A   Clear
3:51 PM 82.9 °F 82.8 °F 59.0 °F 44% 30.10 in 10.0 mi Variable 3.5 mph - N/A   Clear
4:51 PM 84.0 °F 83.8 °F 59.0 °F 43% 30.09 in 10.0 mi NNW 3.5 mph - N/A   Clear
5:51 PM 81.0 °F 81.7 °F 61.0 °F 50% 30.09 in 10.0 mi Calm Calm - N/A   Clear
6:51 PM 77.0 °F - 59.0 °F 54% 30.09 in 10.0 mi Calm Calm - N/A   Clear
7:51 PM 73.0 °F - 55.0 °F 53% 30.10 in 10.0 mi ESE 4.6 mph - N/A   Clear
8:51 PM 69.1 °F - 55.0 °F 61% 30.11 in 10.0 mi ESE 5.8 mph - N/A   Clear
9:51 PM 69.8 °F - 53.6 °F 56% 30.12 in 10.0 mi East 4.6 mph - N/A   Clear
10:51 PM 66.9 °F - 55.0 °F 66% 30.11 in 10.0 mi ESE 5.8 mph - N/A   Clear
11:51 PM 66.9 °F - 55.0 °F 66% 30.10 in 10.0 mi ESE 3.5 mph - N/A   Clear